This demonstration page uses our WeatherBlox Daily Observations layout. Learn more.

Left ArrowRight Arrow

41.86663, -103.66717

Hourly Observations for September 29, 2022

Temp ( °F °C ) Dew Point ( °F °C ) Humidity (%) Winds ( mph kmh ) Pressure ( in mb ) Visibility ( mi km ) Precip ( " mm )
12:53 am 00:53 Clear 66 18.9 43 6.1 43 43 SE 14 22 30.01 1016 10 16 0.00 0.00
1:53 am 01:53 Clear 61 16.1 44 6.7 54 54 ENE 3 6 30.03 1017 10 16 0.00 0.00
2:53 am 02:53 Clear 57 13.9 44 6.7 62 62 E 9 15 30.01 1016 10 16 0.00 0.00
3:53 am 03:53 Clear 56 13.3 45 7.2 66 66 E 7 11 30.00 1016 10 16 0.00 0.00
4:53 am 04:53 Clear 56 13.3 44 6.7 64 64 E 7 11 30.00 1016 10 16 0.00 0.00
5:53 am 05:53 Clear 53 11.7 44 6.7 71 71 ESE 6 9 30.01 1016 10 16 0.00 0.00
6:53 am 06:53 Sunny 52 11.1 44 6.7 74 74 E 3 6 30.04 1017 10 16 0.00 0.00
7:53 am 07:53 Sunny 56 13.3 45 7.2 66 66 E 3 6 30.04 1017 10 16 0.00 0.00
8:53 am 08:53 Sunny 61 16.1 45 7.2 56 56 ESE 5 7 30.02 1017 10 16 0.00 0.00
9:53 am 09:53 Sunny 64 17.8 47 8.3 54 54 SSW 3 6 30.02 1017 10 16 0.00 0.00
10:53 am 10:53 Sunny 74 23.3 45 7.2 36 36 Calm 29.99 1016 10 16 0.00 0.00
11:53 am 11:53 Sunny 81 27.2 44 6.7 27 27 VRB 5 7 29.96 1015 10 16 0.00 0.00
12:53 pm 12:53 Sunny 86 30 43 6.1 22 22 W 9 15 29.93 1014 10 16 0.00 0.00
1:53 pm 13:53 Sunny 82 27.8 43 6.1 25 25 SSE 10 17 29.92 1013 10 16 0.00 0.00
2:53 pm 14:53 Sunny 84 28.9 41 5 22 22 SW 13 20 29.90 1013 10 16 0.00 0.00
3:53 pm 15:53 Partly Cloudy with Light Rain 84 28.9 36 2.2 18 18 SSW 16 26 29.89 1012 10 16 0.01 0.13
4:53 pm 16:53 Mostly Sunny 80 26.7 45 7.2 29 29 SSE 14 22 29.90 1013 10 16 0.01 0.13
5:53 pm 17:53 Sunny 77 25 46 7.8 33 33 E 8 13 29.89 1012 10 16 0.00 0.00
6:53 pm 18:53 Clear 70 21.1 45 7.2 41 41 SE 5 7 29.92 1013 10 16 0.00 0.00
7:53 pm 19:53 Cloudy 67 19.4 47 8.3 49 49 Calm 29.94 1014 10 16 0.00 0.00
8:53 pm 20:53 Mostly Cloudy 71 21.7 45 7.2 39 39 SSE 8 13 29.92 1013 10 16 0.00 0.00
9:53 pm 21:53 Mostly Cloudy 68 20 47 8.3 47 47 SE 9 15 29.92 1013 10 16 0.01 0.13
10:53 pm 22:53 Clear 63 17.2 48 8.9 58 58 SSE 5 7 29.91 1013 10 16 0.00 0.00
11:53 pm 23:53 Clear 65 18.3 45 7.2 48 48 S 7 11 29.89 1012 10 16 0.00 0.00

Powered by AerisWeather